Location: �terpigny
(49.8910°N, 2.9249°E)
Time: 04:11:55
(UTC+00:00)

Cosmos 614 Rocket - Pass Details

Date: 29 May 2022
Orbit: 732 x 764 km, 74.1° (Epoch: 06 July)

Event Time Altitude Azimuth Distance (km) Brightness Sun altitude
Rises 23:01:43 0° 343° (NNW) 3,215 8.9 -17.7°
Reaches altitude 10° 23:05:21 10° 9° (N) 2,294 7.6 -17.8°
Maximum altitude 23:08:00 14° 40° (NE) 2,036 6.7 -17.9°
Drops below altitude 10° 23:10:39 10° 71° (ENE) 2,297 6.6 -18.0°
Sets 23:14:16 0° 97° (E) 3,223 7.1 -18.0°
